Weather History for Bentonville, AR

Change the Weather History Date:

Monday, October 29, 2012

  Actual Average Record
Temperature  
Mean Temperature 46 °F -  
Max Temperature 59 °F 67 °F 88 °F (1950)
Min Temperature 32 °F 43 °F 21 °F (1952)
Degree Days  
Heating Degree Days 20    
Moisture  
Dew Point 28 °F    
Average Humidity 58    
Maximum Humidity 87    
Minimum Humidity 27    
Precipitation  
Precipitation 0.00 in - - ()
Sea Level Pressure  
Sea Level Pressure 30.21 in    
Wind  
Wind Speed 1 mph (SE)    
Max Wind Speed 7 mph    
Max Gust Speed -    
Visibility 10 miles    
Events      
Averages and records for this station are not official NWS values.
T = Trace of Precipitation, MM = Missing Value Source: NWS Daily Summary

Daily Weather History Graph

Daily Weather History Graph

Search for Another Location

Airport:

Trip Planner

Search our weather history database for the weather conditions in past years. The results will help you decide how hot, cold, wet, or windy it might be!

Date:

Astronomy

Oct. 29, 2012 Rise Set
Actual Time 7:37 AM CDT 6:23 PM CDT
Civil Twilight 7:10 AM CDT 6:49 PM CDT
Nautical Twilight 6:40 AM CDT 7:19 PM CDT
Astronomical Twilight 6:10 AM CDT 7:49 PM CDT
Moon 6:16 PM CDT (10/29) 7:27 AM CDT (10/29)
Length of Visible Light 11h 38m
Length of Day
10h 45m
Full, 100% of the Moon is Illuminated
Oct 29
Full
Oct 29
Full
Nov 6
Last Quarter
Nov 13
New
Nov 20
First Quarter

Hourly Weather History & Observations

Time (CDT) Temp. Windchill Dew Point Humidity Pressure Visibility Wind Dir Wind Speed Gust Speed Precip Events Conditions
12:35 AM 35.6 °F - 28.4 °F 75% 30.27 in 10.0 mi Calm Calm - N/A   Clear
12:55 AM 35.6 °F - 28.4 °F 75% 30.26 in 10.0 mi Calm Calm - N/A   Clear
1:15 AM 35.6 °F - 28.4 °F 75% 30.26 in 10.0 mi Calm Calm - N/A   Clear
1:35 AM 33.8 °F - 26.6 °F 75% 30.26 in 3.0 mi Calm Calm - N/A   Clear
1:55 AM 33.8 °F - 26.6 °F 75% 30.25 in 10.0 mi Calm Calm - N/A   Clear
2:55 AM 35.6 °F - 28.4 °F 75% 30.25 in 10.0 mi Calm Calm - N/A   Clear
3:15 AM 35.6 °F 31.7 °F 26.6 °F 70% 30.25 in 10.0 mi East 4.6 mph - N/A   Clear
3:35 AM 35.6 °F 32.8 °F 26.6 °F 70% 30.25 in 10.0 mi ENE 3.5 mph - N/A   Clear
3:56 AM 35.6 °F - 26.6 °F 70% 30.25 in 10.0 mi Calm Calm - N/A   Clear
4:15 AM 33.8 °F 30.8 °F 28.4 °F 81% 30.25 in 10.0 mi East 3.5 mph - N/A   Partly Cloudy
4:35 AM 35.6 °F - 28.4 °F 75% 30.25 in 10.0 mi Calm Calm - N/A   Partly Cloudy
4:56 AM 33.8 °F - 28.4 °F 81% 30.24 in 10.0 mi Calm Calm - N/A   Clear
5:15 AM 33.8 °F - 26.6 °F 75% 30.25 in 10.0 mi Calm Calm - N/A   Scattered Clouds
6:15 AM 32.0 °F - 28.4 °F 87% 30.25 in 10.0 mi Calm Calm - N/A   Clear
6:35 AM 33.8 °F 30.8 °F 30.2 °F 87% 30.25 in 10.0 mi SE 3.5 mph - N/A   Partly Cloudy
6:55 AM 33.8 °F - 30.2 °F 87% 30.25 in 10.0 mi Calm Calm - N/A   Mostly Cloudy
7:15 AM 33.8 °F - 28.4 °F 81% 30.27 in 10.0 mi Calm Calm - N/A   Overcast
7:35 AM 33.8 °F 30.8 °F 28.4 °F 81% 30.27 in 10.0 mi West 3.5 mph - N/A   Overcast
8:15 AM 33.8 °F - 28.4 °F 81% 30.29 in 10.0 mi Calm Calm - N/A   Mostly Cloudy
8:35 AM 35.6 °F 32.8 °F 30.2 °F 81% 30.28 in 10.0 mi South 3.5 mph - N/A   Partly Cloudy
8:55 AM 37.4 °F 34.9 °F 33.8 °F 87% 30.29 in 10.0 mi ESE 3.5 mph - N/A   Clear
9:16 AM 42.8 °F - 30.2 °F 61% 30.30 in 10.0 mi Calm Calm - N/A   Clear
9:35 AM 44.6 °F 40.7 °F 30.2 °F 57% 30.31 in 10.0 mi ESE 6.9 mph - N/A   Mostly Cloudy
9:55 AM 46.4 °F 42.9 °F 28.4 °F 50% 30.31 in 10.0 mi ESE 6.9 mph - N/A   Mostly Cloudy
10:35 AM 48.2 °F - 26.6 °F 43% 30.31 in 10.0 mi SE 4.6 mph - N/A   Clear
10:55 AM 51.8 °F - 28.4 °F 41% 30.31 in 10.0 mi ESE 3.5 mph - N/A   Clear
11:15 AM 50.0 °F - 28.4 °F 43% 30.30 in 10.0 mi SE 5.8 mph - N/A   Clear
12:35 PM 53.6 °F - 28.4 °F 38% 30.27 in 10.0 mi NE 3.5 mph - N/A   Clear
1:15 PM 55.4 °F - 28.4 °F 36% 30.25 in 10.0 mi Calm Calm - N/A   Clear
1:35 PM 55.4 °F - 28.4 °F 36% 30.24 in 9.0 mi Calm Calm - N/A   Clear
2:15 PM 57.2 °F - 28.4 °F 33% 30.22 in 10.0 mi SW 3.5 mph - N/A   Clear
2:35 PM 57.2 °F - 26.6 °F 31% 30.21 in 10.0 mi Calm Calm - N/A   Clear
4:15 PM 59.0 °F - 26.6 °F 29% 30.17 in 10.0 mi Calm Calm - N/A   Clear
4:35 PM 57.2 °F - 26.6 °F 31% 30.16 in 10.0 mi Calm Calm - N/A   Clear
4:55 PM 57.2 °F - 26.6 °F 31% 30.16 in 10.0 mi SSE 4.6 mph - N/A   Clear
5:15 PM 57.2 °F - 26.6 °F 31% 30.15 in 10.0 mi Calm Calm - N/A   Scattered Clouds
5:35 PM 59.0 °F - 26.6 °F 29% 30.15 in 10.0 mi Calm Calm - N/A   Mostly Cloudy
5:55 PM 59.0 °F - 24.8 °F 27% 30.14 in 10.0 mi Calm Calm - N/A   Overcast
6:15 PM 55.4 °F - 26.6 °F 33% 30.14 in 10.0 mi Calm Calm - N/A   Mostly Cloudy
6:35 PM 53.6 °F - 26.6 °F 35% 30.13 in 10.0 mi Calm Calm - N/A   Scattered Clouds
6:55 PM 50.0 °F - 28.4 °F 43% 30.14 in 10.0 mi Calm Calm - N/A   Scattered Clouds
7:15 PM 51.8 °F - 26.6 °F 38% 30.14 in 10.0 mi Calm Calm - N/A   Mostly Cloudy
7:35 PM 50.0 °F - 28.4 °F 43% 30.14 in 10.0 mi Calm Calm - N/A   Mostly Cloudy
7:55 PM 46.4 °F - 30.2 °F 53% 30.14 in 10.0 mi Calm Calm - N/A   Clear
8:15 PM 44.6 °F - 30.2 °F 57% 30.14 in 10.0 mi Calm Calm - N/A   Clear
8:35 PM 44.6 °F - 28.4 °F 53% 30.14 in 10.0 mi Calm Calm - N/A   Clear
8:55 PM 44.6 °F - 28.4 °F 53% 30.13 in 10.0 mi Calm Calm - N/A   Clear
9:15 PM 42.8 °F - 28.4 °F 57% 30.13 in 10.0 mi Calm Calm - N/A   Clear
9:16 PM 42.8 °F - 28.4 °F 57% 30.13 in 10.0 mi Calm Calm - N/A   Clear
9:35 PM - - - N/A% 30.12 in 10.0 mi Calm Calm - N/A   Clear
10:16 PM 42.8 °F 41.1 °F 28.4 °F 57% 30.12 in 10.0 mi South 3.5 mph - N/A   Clear
10:35 PM 39.2 °F - 30.2 °F 70% 30.12 in 10.0 mi Calm Calm - N/A   Clear
10:55 PM 42.8 °F - 30.2 °F 61% 30.12 in 10.0 mi Calm Calm - N/A   Clear
11:35 PM 39.2 °F - 30.2 °F 70% 30.11 in 10.0 mi Calm Calm - N/A   Clear
11:55 PM 39.2 °F - 28.4 °F 65% 30.11 in 10.0 mi Calm Calm - N/A   Clear